Hornbeck, LA

11:21 PM CDT on August 25, 2016 (GMT -0500)
Fort Polk

Weather History for KAQV - January, 2014

Change the Weather History Date:

Wednesday, January 22, 2014

  Actual Average (KPOE) Record (KPOE)
Temperature  
Mean Temperature 44 °F -  
Max Temperature 61 °F 58 °F 77 °F (1997)
Min Temperature 26 °F 39 °F 25 °F (2011)
Degree Days  
Heating Degree Days 22    
Moisture  
Dew Point 27 °F    
Average Humidity 50    
Maximum Humidity 85    
Minimum Humidity 23    
Precipitation  
Precipitation 0.00 in - - ()
Sea Level Pressure  
Sea Level Pressure 30.13 in    
Wind  
Wind Speed 1 mph (SSE)    
Max Wind Speed 7 mph    
Max Gust Speed -    
Visibility 3 miles    
Events      
Averages and records for this station are not official NWS values.
T = Trace of Precipitation, MM = Missing Value Source: NWS Daily Summary

Daily Weather History Graph

Daily Weather History Graph

Search for Another Location

Airport or City:

Trip Planner

Search our weather history database for the weather conditions in past years. The results will help you decide how hot, cold, wet, or windy it might be!

Date:

Astronomy

Jan. 22, 2014 Rise Set
Actual Time 7:10 AM CST 5:39 PM CST
Civil Twilight 6:44 AM CST 6:05 PM CST
Nautical Twilight 6:15 AM CST 6:34 PM CST
Astronomical Twilight 5:46 AM CST 7:03 PM CST
Moon 11:44 PM CST (1/22) 10:37 AM CST (1/22)
Length of Visible Light 11h 20m
Length of Day
10h 28m
Waning Gibbous, 65% of the Moon is Illuminated
Jan 22
Waning Gibbous
Jan 23
Last Quarter
Jan 30
New
Feb 6
First Quarter
Feb 14
Full

Hourly Weather History & Observations

Time (CST) Temp. Windchill Dew Point Humidity Pressure Visibility Wind Dir Wind Speed Gust Speed Precip Events Conditions
12:56 AM 28.0 °F - 23.0 °F 81% 30.22 in 10.0 mi Calm Calm - N/A   Clear
1:56 AM 28.0 °F - 21.0 °F 75% 30.23 in 10.0 mi Calm Calm - N/A   Clear
2:56 AM 27.0 °F - 23.0 °F 85% 30.21 in 9.0 mi Calm Calm - N/A   Clear
3:56 AM 27.0 °F - 21.9 °F 81% 30.21 in 10.0 mi Calm Calm - N/A   Clear
4:56 AM 27.0 °F - 21.9 °F 81% 30.19 in 10.0 mi Calm Calm - N/A   Clear
5:56 AM 26.1 °F - 21.0 °F 81% 30.19 in 9.0 mi Calm Calm - N/A   Clear
6:56 AM 26.1 °F - 21.0 °F 81% 30.19 in 10.0 mi Calm Calm - N/A   Clear
7:56 AM 28.0 °F - 21.9 °F 78% 30.20 in 10.0 mi Calm Calm - N/A   Clear
8:56 AM 34.0 °F - 21.9 °F 61% 30.22 in 10.0 mi Calm Calm - N/A   Clear
9:56 AM 41.0 °F 39.0 °F 23.0 °F 49% 30.23 in 10.0 mi Variable 3.5 mph - N/A   Clear
10:56 AM 48.0 °F - 21.0 °F 34% 30.22 in 10.0 mi Calm Calm - N/A   Clear
11:56 AM 52.0 °F - 19.9 °F 28% 30.18 in 10.0 mi Calm Calm - N/A   Clear
12:20 PM 53.6 °F - 19.4 °F 26% 30.16 in 7.0 mi Variable 3.5 mph - N/A   Mostly Cloudy
12:51 PM 55.4 °F - 19.4 °F 25% 30.14 in 1.8 mi Variable 3.5 mph - N/A   Haze
12:56 PM 55.9 °F - 19.9 °F 25% 30.14 in 1.2 mi Calm Calm - N/A   Haze
1:10 PM 55.4 °F - 21.2 °F 26% 30.13 in 0.5 mi Variable 3.5 mph - N/A   Haze
1:38 PM 57.2 °F - 21.2 °F 25% 30.12 in 1.0 mi Calm Calm - N/A   Haze
1:56 PM 59.0 °F - 21.0 °F 23% 30.12 in 0.8 mi Calm Calm - N/A   Haze
2:15 PM 59.0 °F - 21.2 °F 23% 30.10 in 0.2 mi Calm Calm - N/A   Haze
2:43 PM 59.0 °F - 21.2 °F 23% 30.10 in 2.0 mi Calm Calm - N/A   Haze
2:56 PM 61.0 °F - 23.0 °F 23% 30.10 in 2.0 mi Variable 3.5 mph - N/A   Haze
3:03 PM 60.8 °F - 23.0 °F 23% 30.09 in 1.0 mi Calm Calm - N/A   Haze
3:11 PM 60.8 °F - 23.0 °F 23% 30.09 in 0.8 mi Calm Calm - N/A   Haze
3:26 PM 60.8 °F - 23.0 °F 23% 30.09 in 0.5 mi Variable 4.6 mph - N/A   Haze
3:37 PM 60.8 °F - 23.0 °F 23% 30.09 in 1.0 mi Variable 4.6 mph - N/A   Haze
3:47 PM 60.8 °F - 24.8 °F 25% 30.09 in 0.8 mi Variable 5.8 mph - N/A   Haze
3:56 PM 60.1 °F - 23.0 °F 24% 30.09 in 0.8 mi Variable 3.5 mph - N/A   Haze
4:14 PM 60.8 °F - 24.8 °F 25% 30.08 in 0.5 mi SSE 6.9 mph - N/A   Haze
4:56 PM 57.9 °F - 27.0 °F 31% 30.10 in 1.2 mi Calm Calm - N/A   Haze
5:06 PM 57.2 °F - 28.4 °F 33% 30.09 in 1.8 mi Calm Calm - N/A   Haze
5:16 PM 55.4 °F - 30.2 °F 38% 30.09 in 0.8 mi Calm Calm - N/A   Haze
5:56 PM 51.1 °F - 32.0 °F 48% 30.10 in 1.2 mi Calm Calm - N/A   Haze
6:21 PM 48.2 °F - 32.0 °F 54% 30.09 in 2.0 mi Calm Calm - N/A   Haze
6:28 PM 48.2 °F - 32.0 °F 54% 30.09 in 1.5 mi Calm Calm - N/A   Haze
6:56 PM 48.9 °F - 32.0 °F 52% 30.11 in 1.2 mi Calm Calm - N/A   Haze
7:56 PM 46.0 °F - 33.1 °F 61% 30.12 in 1.2 mi Calm Calm - N/A   Haze
8:08 PM 46.4 °F - 33.8 °F 62% 30.11 in 0.8 mi Calm Calm - N/A   Haze
8:22 PM 46.4 °F - 33.8 °F 62% 30.11 in 1.2 mi Calm Calm - N/A   Haze
8:37 PM 46.4 °F - 33.8 °F 62% 30.12 in 0.8 mi Calm Calm - N/A   Haze
8:45 PM 46.4 °F - 33.8 °F 62% 30.12 in 1.0 mi Calm Calm - N/A   Haze
8:56 PM 46.0 °F - 35.1 °F 66% 30.13 in 1.0 mi Calm Calm - N/A   Haze
9:14 PM 46.4 °F - 35.6 °F 66% 30.12 in 0.8 mi Calm Calm - N/A   Haze
9:27 PM 46.4 °F - 35.6 °F 66% 30.12 in 1.0 mi Calm Calm - N/A   Haze
9:56 PM 46.0 °F - 35.1 °F 66% 30.12 in 1.5 mi Calm Calm - N/A   Haze
10:27 PM 44.6 °F - 37.4 °F 76% 30.13 in 0.8 mi Calm Calm - N/A   Haze
10:33 PM 44.6 °F - 37.4 °F 76% 30.13 in 2.0 mi Calm Calm - N/A   Haze
10:54 PM 44.6 °F - 37.4 °F 76% 30.12 in 1.0 mi Calm Calm - N/A   Haze
10:56 PM 44.1 °F - 37.0 °F 76% 30.13 in 1.0 mi Calm Calm - N/A   Haze